TimeEST,TemperatureF,Dew PointF,Humidity,Sea Level PressureIn,VisibilityMPH,Wind Direction,Wind SpeedMPH,Gust SpeedMPH,PrecipitationIn,Events,Conditions,WindDirDegrees,DateUTC
12:15 AM,42.8,39.2,87,30.18,10.0,NE,3.5,-,N/A,,Clear,50,2012-12-20 05:15:00
12:35 AM,44.6,39.2,81,30.18,10.0,Calm,Calm,-,N/A,,Clear,0,2012-12-20 05:35:00
12:55 AM,44.6,39.2,81,30.19,10.0,Calm,Calm,-,N/A,,Clear,0,2012-12-20 05:55:00
1:15 AM,42.8,39.2,87,30.18,10.0,Calm,Calm,-,N/A,,Clear,0,2012-12-20 06:15:00
1:55 AM,39.2,37.4,93,30.18,10.0,Calm,Calm,-,N/A,,Clear,0,2012-12-20 06:55:00
2:15 AM,39.2,37.4,93,30.19,10.0,Calm,Calm,-,N/A,,Clear,0,2012-12-20 07:15:00
2:35 AM,37.4,37.4,100,30.18,7.0,Calm,Calm,-,N/A,,Clear,0,2012-12-20 07:35:00
2:55 AM,37.4,37.4,100,30.19,7.0,Calm,Calm,-,N/A,,Clear,0,2012-12-20 07:55:00
3:15 AM,37.4,37.4,100,30.19,5.0,Calm,Calm,-,N/A,,Clear,0,2012-12-20 08:15:00
3:35 AM,35.6,35.6,100,30.19,7.0,Calm,Calm,-,N/A,,Clear,0,2012-12-20 08:35:00
3:55 AM,37.4,35.6,93,30.19,10.0,Calm,Calm,-,N/A,,Clear,0,2012-12-20 08:55:00
4:15 AM,35.6,35.6,100,30.20,10.0,Calm,Calm,-,N/A,,Clear,0,2012-12-20 09:15:00
4:35 AM,35.6,35.6,100,30.19,10.0,Calm,Calm,-,N/A,,Clear,0,2012-12-20 09:35:00
4:55 AM,35.6,35.6,100,30.19,3.0,Calm,Calm,-,N/A,,Clear,0,2012-12-20 09:55:00
5:15 AM,35.6,35.6,100,30.19,5.0,Calm,Calm,-,N/A,,Clear,0,2012-12-20 10:15:00
5:35 AM,35.6,35.6,100,30.20,10.0,Calm,Calm,-,N/A,,Clear,0,2012-12-20 10:35:00
5:55 AM,33.8,33.8,100,30.20,7.0,Calm,Calm,-,N/A,,Clear,0,2012-12-20 10:55:00
6:15 AM,33.8,33.8,100,30.21,10.0,Calm,Calm,-,N/A,,Clear,0,2012-12-20 11:15:00
6:35 AM,33.8,33.8,100,30.21,10.0,Calm,Calm,-,N/A,,Clear,0,2012-12-20 11:35:00
6:55 AM,35.6,33.8,93,30.22,10.0,Calm,Calm,-,N/A,,Clear,0,2012-12-20 11:55:00
7:15 AM,35.6,33.8,93,30.21,10.0,Calm,Calm,-,N/A,,Clear,0,2012-12-20 12:15:00
7:35 AM,35.6,33.8,93,30.20,10.0,Calm,Calm,-,N/A,,Clear,0,2012-12-20 12:35:00
7:55 AM,35.6,33.8,93,30.20,10.0,Calm,Calm,-,N/A,,Clear,0,2012-12-20 12:55:00
8:15 AM,35.6,33.8,93,30.19,10.0,Calm,Calm,-,N/A,,Clear,0,2012-12-20 13:15:00
8:35 AM,37.4,35.6,93,30.19,10.0,Calm,Calm,-,N/A,,Clear,0,2012-12-20 13:35:00
8:55 AM,39.2,37.4,93,30.18,10.0,Calm,Calm,-,N/A,,Clear,0,2012-12-20 13:55:00
9:15 AM,41.0,39.2,93,30.19,10.0,Calm,Calm,-,N/A,,Clear,0,2012-12-20 14:15:00
9:35 AM,44.6,41.0,87,30.19,10.0,Calm,Calm,-,N/A,,Clear,0,2012-12-20 14:35:00
9:55 AM,46.4,41.0,81,30.19,10.0,Calm,Calm,-,N/A,,Clear,0,2012-12-20 14:55:00
10:15 AM,48.2,41.0,76,30.17,10.0,East,8.1,-,N/A,,Scattered Clouds,90,2012-12-20 15:15:00
10:35 AM,50.0,41.0,71,30.16,10.0,ESE,10.4,-,N/A,,Clear,110,2012-12-20 15:35:00
10:55 AM,51.8,41.0,67,30.14,10.0,East,10.4,-,N/A,,Clear,90,2012-12-20 15:55:00
11:15 AM,51.8,39.2,62,30.13,10.0,ESE,9.2,-,N/A,,Clear,110,2012-12-20 16:15:00
11:35 AM,51.8,39.2,62,30.13,10.0,ESE,8.1,-,N/A,,Clear,120,2012-12-20 16:35:00
11:55 AM,53.6,41.0,62,30.12,10.0,ESE,8.1,-,N/A,,Clear,120,2012-12-20 16:55:00
12:15 PM,53.6,41.0,62,30.11,10.0,SE,9.2,-,N/A,,Clear,140,2012-12-20 17:15:00
12:35 PM,53.6,42.8,67,30.09,10.0,ESE,6.9,-,N/A,,Clear,110,2012-12-20 17:35:00
12:55 PM,53.6,42.8,67,30.08,10.0,East,6.9,-,N/A,,Clear,100,2012-12-20 17:55:00
1:15 PM,55.4,42.8,63,30.07,10.0,East,8.1,-,N/A,,Clear,80,2012-12-20 18:15:00
1:35 PM,55.4,42.8,63,30.05,10.0,East,8.1,-,N/A,,Clear,100,2012-12-20 18:35:00
1:55 PM,55.4,42.8,63,30.05,10.0,ESE,8.1,-,N/A,,Clear,110,2012-12-20 18:55:00
2:15 PM,55.4,44.6,67,30.05,10.0,East,4.6,-,N/A,,Clear,100,2012-12-20 19:15:00
2:35 PM,55.4,44.6,67,30.04,10.0,Calm,Calm,-,N/A,,Clear,0,2012-12-20 19:35:00
2:55 PM,55.4,44.6,67,30.02,10.0,East,6.9,-,N/A,,Clear,90,2012-12-20 19:55:00
3:15 PM,53.6,44.6,72,30.01,10.0,East,12.7,17.3,N/A,,Scattered Clouds,100,2012-12-20 20:15:00
3:35 PM,53.6,44.6,72,29.99,10.0,East,9.2,-,N/A,,Mostly Cloudy,100,2012-12-20 20:35:00
3:55 PM,53.6,44.6,72,29.98,10.0,East,6.9,-,N/A,,Scattered Clouds,100,2012-12-20 20:55:00
4:15 PM,53.6,44.6,72,29.97,10.0,East,8.1,-,N/A,,Scattered Clouds,100,2012-12-20 21:15:00
4:35 PM,53.6,44.6,72,29.96,10.0,East,8.1,-,N/A,,Mostly Cloudy,100,2012-12-20 21:35:00
4:55 PM,53.6,46.4,77,29.95,10.0,East,8.1,-,N/A,,Overcast,100,2012-12-20 21:55:00
5:15 PM,53.6,46.4,77,29.95,10.0,East,6.9,-,N/A,,Mostly Cloudy,100,2012-12-20 22:15:00
5:35 PM,53.6,46.4,77,29.93,10.0,East,8.1,-,N/A,,Overcast,100,2012-12-20 22:35:00
5:55 PM,53.6,46.4,77,29.92,10.0,East,8.1,-,N/A,,Mostly Cloudy,90,2012-12-20 22:55:00
6:15 PM,53.6,46.4,77,29.89,10.0,East,8.1,-,N/A,,Mostly Cloudy,100,2012-12-20 23:15:00
6:35 PM,53.6,48.2,82,29.89,10.0,East,10.4,16.1,N/A,,Overcast,100,2012-12-20 23:35:00
6:55 PM,53.6,48.2,82,29.88,10.0,East,9.2,17.3,N/A,,Overcast,100,2012-12-20 23:55:00
7:15 PM,55.4,48.2,77,29.86,10.0,East,12.7,19.6,N/A,,Overcast,100,2012-12-21 00:15:00
7:35 PM,55.4,48.2,77,29.84,10.0,East,10.4,18.4,N/A,,Overcast,100,2012-12-21 00:35:00
7:55 PM,55.4,50.0,82,29.83,10.0,ESE,13.8,20.7,N/A,,Overcast,110,2012-12-21 00:55:00
8:15 PM,57.2,51.8,82,29.81,10.0,ESE,8.1,-,N/A,,Overcast,120,2012-12-21 01:15:00
8:35 PM,57.2,51.8,82,29.80,10.0,ESE,9.2,-,N/A,Rain,Light Rain,120,2012-12-21 01:35:00
8:55 PM,57.2,51.8,82,29.79,10.0,ESE,9.2,-,N/A,Rain,Light Rain,120,2012-12-21 01:55:00
9:15 PM,57.2,51.8,82,29.77,10.0,SE,9.2,-,N/A,,Mostly Cloudy,130,2012-12-21 02:15:00
9:35 PM,59.0,53.6,82,29.75,10.0,SE,10.4,-,N/A,,Mostly Cloudy,130,2012-12-21 02:35:00
9:55 PM,60.8,53.6,77,29.72,10.0,SE,12.7,19.6,N/A,Rain,Light Rain,130,2012-12-21 02:55:00
10:15 PM,60.8,55.4,82,29.67,10.0,SE,11.5,18.4,N/A,,Drizzle,130,2012-12-21 03:15:00
10:35 PM,62.6,55.4,77,29.65,10.0,SE,16.1,23.0,N/A,Rain,Light Rain,140,2012-12-21 03:35:00
10:55 PM,62.6,57.2,82,29.64,10.0,SE,12.7,18.4,N/A,Rain,Light Rain,140,2012-12-21 03:55:00
11:15 PM,60.8,57.2,88,29.61,10.0,SE,15.0,21.9,0.01,Rain,Rain,140,2012-12-21 04:15:00
11:35 PM,60.8,59.0,94,29.60,10.0,SSE,13.8,25.3,0.04,Rain,Rain,150,2012-12-21 04:35:00
11:55 PM,60.8,59.0,94,29.55,10.0,SE,13.8,20.7,0.02,Rain,Rain,140,2012-12-21 04:55:00